Radio RS-6

operational
NORAD ID: 13000 Int'l Des: 1981-120 Owner: NPOPM/MAIO Country: SU
LEOCIRCULARPOLAR

Radio RS-6について

説明を読み込み中...

リアルタイム位置

3D地球を読み込み中...

次回通過

高度履歴

Altitude vs Time

uPlot chart will show altitude changes over time

軌道要素

1 13000U 81120D 26062.25278792 -.00000066 00000-0 -85399-3 0 9995
2 13000 82.9597 118.1930 0018232 34.3132 28.7461 12.06921649947379
Epoch: Mar 3, 2026 • Age: 29 hours

現在のステータス

高度 1680.0 km
速度 7.03 km/s
衛星直下点 -40.89°S, 69.45°E
打ち上げ日 Dec 17, 1981
運用期間 44.2 years
タイプ other

技術仕様

分類 Payload
質量 70.00 kg
乾燥質量 70.00 kg
総質量 70.00 kg
長さ 0.80 m
直径 0.80 m
スパン 0.80 m
形状 Poly
製造者 NPOPM/MAIO
バスタイプ Strela-1M
フェーズステータス In Orbit
所有者/国 NPOPM/MAIO/SU

大規模コンステレーション

Loading constellations...